EST,Max TemperatureF,Mean TemperatureF,Min TemperatureF,Max Dew PointF,MeanDew PointF,Min DewpointF,Max Humidity, Mean Humidity, Min Humidity, Max Sea Level PressureIn, Mean Sea Level PressureIn, Min Sea Level PressureIn, Max VisibilityMiles, Mean VisibilityMiles, Min VisibilityMiles, Max Wind SpeedMPH, Mean Wind SpeedMPH, Max Gust SpeedMPH,PrecipitationIn, CloudCover, Events, WindDirDegrees
2013-2-1,48,36,26,32,22,12,73,51,24,30.41,30.29,30.16,10,10,10,22,8,30,0.00,0,,265
2013-2-2,55,36,18,42,23,16,100,64,26,30.41,30.30,30.15,10,10,10,12,1,23,0.00,2,,241
2013-2-3,59,47,35,42,35,30,100,70,35,30.15,30.08,29.99,10,10,10,21,6,32,0.00,1,,268
2013-2-4,50,38,27,36,32,28,100,78,48,30.19,30.12,30.08,10,10,10,6,1,,0.00,0,,236
2013-2-5,64,47,30,50,42,30,100,85,58,30.09,30.05,30.01,10,10,10,14,2,20,0.00,4,,248
2013-2-6,70,52,35,50,40,35,100,74,28,30.22,30.15,30.07,10,8,0,6,1,,0.00,1,,275
2013-2-7,46,40,33,46,42,34,100,99,92,30.20,30.09,29.93,10,7,1,15,4,24,0.00,6,,30
2013-2-8,59,50,41,52,46,41,100,93,76,30.17,30.03,29.94,10,10,7,12,5,16,0.00,5,,296
2013-2-9,60,44,27,40,34,28,100,78,37,30.35,30.29,30.16,10,10,5,9,2,,0.00,0,,73
2013-2-10,65,48,31,56,44,32,100,81,54,30.42,30.30,30.15,10,9,2,15,5,24,0.00,3,,111
2013-2-11,66,60,53,64,58,54,100,98,90,30.23,30.14,30.09,10,9,4,12,6,20,0.00,8,,208
2013-2-12,60,54,47,54,49,43,100,90,58,30.16,30.06,29.93,10,9,2,10,2,,0.00,7,,1
2013-2-13,54,49,44,54,48,41,100,95,79,29.96,29.85,29.79,10,7,2,16,5,26,0.00,6,,261
2013-2-14,51,40,30,43,38,31,100,90,65,30.14,30.07,29.96,10,9,2,7,2,,0.00,0,,277
2013-2-15,63,46,28,43,36,29,100,80,37,30.16,30.08,30.01,10,9,2,8,1,,0.00,0,,290
2013-2-16,47,39,30,41,28,16,100,70,37,30.15,30.02,29.92,10,10,3,24,7,32,0.00,4,,284
2013-2-17,46,35,24,22,18,14,84,54,30,30.34,30.26,30.15,10,10,10,18,7,26,0.00,0,,275
2013-2-18,57,40,22,31,26,22,99,62,33,30.44,30.35,30.26,10,10,10,10,2,17,0.00,0,,157
2013-2-19,57,48,38,50,39,27,100,81,49,30.25,30.11,30.03,10,8,1,13,4,16,0.00,4,,244
2013-2-20,58,44,30,30,25,22,75,49,26,30.21,30.16,30.11,10,10,10,12,6,17,0.00,1,,276
2013-2-21,65,46,27,41,31,25,100,59,29,30.24,30.15,30.08,10,10,10,8,2,,0.00,1,,81
2013-2-22,52,46,39,44,41,39,100,94,60,30.22,30.18,30.13,10,4,1,12,7,20,0.00,8,,44
2013-2-23,45,41,38,45,42,39,100,100,100,30.14,29.98,29.90,10,5,1,15,4,,0.00,8,,12
2013-2-24,68,53,38,49,44,38,100,79,34,30.06,30.00,29.94,10,8,2,9,4,,0.00,3,,282
2013-2-25,48,42,37,42,38,34,100,81,57,30.12,30.04,29.98,10,10,2,15,5,25,0.00,5,,59
2013-2-26,50,44,38,50,43,39,100,100,97,29.99,29.76,29.64,10,6,2,16,8,24,0.00,8,,11
2013-2-27,60,48,37,42,40,36,96,76,47,29.94,29.87,29.81,10,10,10,15,7,22,0.00,1,,233
2013-2-28,54,44,36,40,34,30,93,68,50,30.00,29.92,29.86,10,10,10,18,8,26,0.00,2,,273